Location: Peterborough
(44.3091°N, 78.3197°W)
Time: 06:35:20
(UTC-04:00)

Vanguard 3 - Pass Details

Date: 25 February 2024
Orbit: 510 x 3236 km, 33.3° (Epoch: 12 April)

Event Time Altitude Azimuth Distance (km) Brightness Sun altitude
Rises 22:42:08 0° 255° (WSW) 7,125 12.2 -48.0°
Reaches altitude 10° 22:46:59 10° 252° (WSW) 6,165 11.7 -48.6°
Enters shadow 22:58:58 42° 232° (SW) 3,954 10.3 -49.9°
Maximum altitude 23:05:52 57° 182° (S) 3,212 - -50.5°
Drops below altitude 10° 23:19:29 10° 108° (ESE) 4,595 - -51.8°
Sets 23:22:31 0° 104° (ESE) 5,284 - -52.0°
